Theta_e
306 307 307 307 309 311 314 316 317 317 317 317 317 317 317 316 316 322 333 336 336 341 354 350 360 350 353 349 356 362 372 353 353 354 353 348 351 347 348 346 342 343 344 342 343
305 305 306 306 308 312 313 314 316 317 317 317 317 317 316 317 318 326 325 332 330 340 348 357 363 363 356 351 356 361 350 353 349 349 349 349 349 348 348 346 344 346 343 343 343
304 305 305 306 308 310 311 313 314 317 317 318 317 317 317 317 331 329 333 332 326 334 335 348 353 350 352 354 349 349 348 349 349 349 350 349 349 347 346 348 347 346 345 343 342
304 305 305 306 307 308 310 312 314 316 317 318 317 318 318 322 331 336 334 330 326 338 347 348 350 342 347 351 348 351 350 349 351 351 352 352 348 349 348 348 345 343 341 340 341
305 305 306 307 308 308 309 311 314 316 317 317 319 320 316 329 330 330 325 325 328 339 348 345 349 344 349 348 346 351 353 351 351 351 351 352 353 351 349 346 343 342 341 341 342
305 306 307 308 309 309 310 311 314 316 317 320 321 320 330 327 332 331 334 330 337 344 343 343 345 344 345 347 350 347 351 347 345 353 352 352 353 355 348 344 343 343 342 342 342
306 307 309 311 312 312 312 312 315 317 319 322 322 319 326 323 326 338 343 341 342 342 344 345 343 337 336 348 349 350 353 347 347 354 352 345 344 350 348 344 344 344 342 342 341
307 311 314 315 316 315 313 314 317 319 321 321 318 325 326 322 324 325 329 330 337 341 341 342 341 335 340 346 351 352 352 356 350 350 350 350 350 345 345 346 345 345 344 343 342
312 316 317 317 316 315 314 316 318 320 322 319 322 325 324 325 324 325 325 326 328 329 331 333 332 335 335 351 353 355 353 351 349 347 351 352 352 348 347 347 345 345 345 344 343
314 317 317 317 316 315 317 319 321 321 325 325 327 327 327 325 325 325 325 325 324 325 327 329 329 332 332 335 355 358 354 349 352 349 349 353 356 355 351 346 346 345 344 345 345
316 317 317 317 316 315 318 324 328 326 326 327 324 325 322 326 326 325 326 325 324 325 325 327 331 332 333 335 349 344 347 347 347 346 349 349 358 356 353 347 348 345 344 344 344
317 318 317 316 316 316 317 325 324 324 324 326 327 325 324 326 325 323 326 323 323 322 325 326 328 331 333 334 345 346 346 347 349 348 348 345 361 355 349 348 348 347 345 345 343
319 319 317 316 318 319 321 328 324 325 323 328 327 324 323 324 323 323 322 321 322 322 322 323 327 330 331 333 347 346 344 344 349 346 342 341 360 359 353 353 351 350 347 345 344
320 319 317 317 324 325 327 325 325 325 328 330 324 323 324 325 322 324 324 322 324 322 321 322 324 327 327 328 332 336 344 337 337 337 341 339 341 349 352 355 346 343 349 346 344
321 320 317 317 317 323 325 325 325 324 336 326 324 326 326 322 322 322 324 326 323 323 323 320 322 323 324 327 329 330 333 333 334 333 331 338 334 350 350 354 348 345 350 348 345
320 321 320 326 325 327 326 325 326 328 334 327 326 324 323 323 323 324 324 325 323 322 322 321 323 323 323 326 326 326 326 326 327 329 330 332 334 351 350 353 350 350 343 349 347
318 323 322 320 327 326 326 326 332 331 330 328 326 325 324 323 322 323 322 322 320 321 321 322 323 323 324 324 324 324 320 324 329 330 330 328 331 332 347 346 345 345 346 344 347
319 323 325 325 324 326 326 330 339 330 327 327 326 325 327 327 326 324 322 322 321 320 318 319 322 324 324 322 322 322 320 321 327 329 328 323 327 344 347 348 345 343 343 342 346
324 327 328 331 328 328 326 335 334 329 327 327 327 327 327 327 326 326 324 328 327 327 329 327 327 328 325 325 322 323 321 320 319 320 320 323 329 342 341 339 340 339 344 344 342
325 328 331 333 330 328 332 336 329 327 326 328 329 329 329 328 327 326 330 329 329 328 326 327 327 327 326 325 325 325 323 318 317 323 326 325 325 327 342 340 339 336 338 341 344
328 336 328 327 328 330 337 334 331 327 327 328 327 327 328 330 328 328 332 331 330 329 326 326 328 330 330 328 326 323 321 321 317 317 320 321 324 330 342 342 338 339 339 341 342
327 340 327 327 332 336 334 329 322 329 327 327 326 328 329 328 329 330 332 332 329 329 331 329 328 328 327 327 328 328 329 323 322 324 321 318 321 324 328 332 337 337 335 338 340
327 335 327 328 332 332 330 328 328 329 329 330 332 331 329 329 331 330 330 330 329 330 330 327 328 326 325 324 325 328 328 328 326 326 324 324 323 330 330 339 343 335 336 341 340
329 334 329 328 328 327 329 332 330 330 327 329 329 330 330 331 330 333 332 330 330 330 336 329 325 325 325 324 326 328 329 327 327 328 328 328 330 329 330 333 338 342 343 344 343
331 327 324 324 325 323 323 327 328 329 331 329 330 330 331 330 328 328 327 329 329 336 331 326 327 328 328 327 327 327 327 327 326 327 327 327 328 328 329 336 336 337 347 348 348
326 327 326 327 325 325 323 327 328 327 327 327 326 327 329 328 323 323 322 324 325 323 321 322 323 326 325 323 321 324 326 328 327 327 327 326 326 341 334 347 347 345 348 349 350
322 322 327 328 328 327 325 325 325 324 324 323 323 324 325 322 320 319 317 317 318 317 317 317 318 323 324 325 323 325 327 327 327 328 327 329 337 343 347 347 344 345 343 340 350
Wind_Speed
16 16 17 18 18 18 17 16 18 19 20 21 22 23 25 28 27 13 5 7 8 9 14 17 18 42 30 7 8 8 5 5 12 10 5 10 15 15 16 18 13 15 9 25 31
17 18 18 18 18 17 17 17 18 18 19 21 22 23 24 28 23 13 17 15 9 9 9 18 19 23 4 2 2 4 3 11 11 8 6 11 11 10 9 20 17 13 21 32 30
19 19 19 18 18 18 18 18 18 18 19 20 22 23 24 23 5 7 8 13 8 7 5 14 20 11 10 7 5 7 7 13 13 10 13 9 10 10 12 8 16 23 25 26 29
21 21 20 19 19 19 19 19 18 18 18 20 21 22 22 4 4 2 4 8 6 5 5 12 10 10 2 5 4 4 14 13 11 8 8 10 13 8 10 8 20 26 26 21 21
22 22 20 19 19 19 19 19 18 18 18 19 20 19 8 3 9 10 5 6 8 6 7 10 14 11 1 5 8 9 14 14 23 7 8 6 6 2 14 16 23 24 23 20 16
24 21 21 20 18 18 18 18 17 17 18 18 16 13 2 5 9 5 5 5 7 9 7 13 9 17 13 6 11 11 10 12 23 23 8 5 4 5 7 20 24 24 22 19 19
24 23 21 20 19 17 17 16 15 16 17 14 12 6 5 14 8 8 9 7 8 15 9 22 17 10 6 5 16 14 3 12 11 16 4 6 1 2 2 18 21 20 19 20 18
25 24 22 19 17 16 16 15 15 15 12 9 7 0 7 21 20 21 15 15 17 18 20 23 24 9 7 16 7 10 4 6 5 5 5 5 9 4 7 11 19 20 17 17 15
25 24 21 17 15 15 15 14 14 12 8 7 4 4 9 10 9 17 17 14 16 21 22 19 13 6 5 13 4 2 4 1 11 7 8 8 7 8 5 8 15 16 16 15 14
27 22 17 15 14 16 15 14 11 8 6 4 10 5 9 10 14 22 19 19 8 9 9 8 5 6 6 4 6 8 5 2 8 6 9 12 14 4 9 10 14 14 13 13 14
24 19 15 13 13 16 16 3 1 2 5 9 7 6 7 16 4 5 7 11 5 6 7 9 4 7 13 7 17 13 12 18 24 23 18 19 17 16 14 12 14 12 13 13 13
21 17 14 12 12 14 12 3 7 7 7 14 18 16 18 7 5 11 16 6 7 7 8 8 8 11 14 18 21 17 10 7 14 26 17 21 16 18 18 15 11 13 12 13 11
19 16 14 12 11 11 7 10 9 12 3 8 13 9 8 9 10 15 9 10 10 7 9 9 12 14 14 13 15 10 10 11 13 24 8 4 8 19 3 6 9 1 6 14 16
19 16 13 11 9 9 8 3 8 11 3 4 7 6 5 1 7 15 19 10 6 11 11 8 13 16 15 11 9 10 21 9 8 3 2 2 2 2 4 6 7 20 10 17 19
18 15 12 10 14 8 13 10 11 5 2 10 6 7 4 7 7 4 17 4 7 10 5 12 9 9 11 11 9 7 8 6 8 8 5 5 5 5 6 5 8 18 11 19 19
17 14 11 7 11 10 14 13 10 1 2 5 7 8 7 8 9 2 3 1 8 8 12 11 12 7 7 6 6 10 9 10 7 3 5 9 5 6 7 11 14 20 17 14 18
18 14 14 11 5 11 15 8 2 3 3 6 1 6 11 8 9 8 9 7 5 3 7 9 13 10 6 6 8 7 7 5 5 4 7 11 4 8 22 16 16 22 13 15 16
21 19 17 20 12 13 17 3 4 9 8 2 2 7 2 3 5 8 6 5 9 9 6 5 9 5 8 9 9 7 4 5 4 4 7 8 6 4 13 15 12 12 8 10 12
21 12 7 13 7 8 2 3 2 8 11 9 11 7 4 4 2 4 4 5 7 7 4 6 9 14 13 5 11 6 3 7 2 5 4 4 6 5 5 7 14 13 12 19 16
13 7 12 15 15 12 1 5 3 6 7 12 8 8 8 4 3 9 5 6 7 11 8 8 9 8 10 8 7 2 4 6 4 3 6 7 8 3 6 6 5 10 4 11 19
5 3 6 10 12 2 3 3 4 8 6 7 9 8 8 7 8 10 7 11 11 10 10 9 6 11 8 5 6 5 2 3 4 5 3 3 7 2 5 13 7 19 22 9 12
7 3 8 5 2 3 3 2 1 5 4 3 4 7 8 10 8 9 6 5 8 6 4 8 4 6 11 6 12 6 9 2 5 9 5 5 8 7 8 5 14 23 15 9 6
4 4 7 5 3 5 3 3 2 7 10 9 8 7 9 6 5 7 11 6 9 5 4 6 5 5 12 9 14 7 9 8 5 3 4 3 6 8 10 15 13 6 14 5 7
3 3 3 2 3 7 9 7 2 5 3 4 8 8 7 7 8 5 4 5 5 7 8 7 3 5 6 9 6 9 13 10 5 3 6 5 9 10 8 6 9 9 8 8 8
2 3 4 4 7 7 8 9 11 6 4 4 2 7 6 6 9 9 13 10 12 4 2 3 5 6 9 9 10 11 13 12 8 8 4 10 10 13 8 5 9 9 9 9 9
4 4 6 7 10 7 5 4 9 8 8 8 8 13 8 5 4 7 9 8 4 9 9 8 6 7 6 9 11 12 10 9 9 8 8 9 15 7 10 24 25 25 9 8 7
14 10 3 7 7 9 5 8 10 8 6 9 11 6 7 8 7 6 8 9 11 9 7 6 5 5 6 9 10 7 9 9 9 8 6 6 2 6 17 16 15 14 14 21 30
Wind_Direction
343 339 335 332 329 327 323 323 324 327 327 329 330 330 331 330 324 315 251 272 188 182 137 150 171 136 169 220 165 202 282 69 105 111 178 121 95 103 130 137 161 179 131 153 162
341 336 331 328 324 321 319 319 320 321 324 325 327 328 330 333 327 275 261 258 256 191 159 187 185 201 201 208 235 190 177 114 119 147 139 139 116 133 138 155 164 130 130 150 161
338 335 331 325 321 319 316 316 318 317 319 322 324 324 329 330 298 245 237 232 234 224 253 276 277 275 211 183 227 273 88 96 108 121 116 120 134 162 159 149 151 147 147 155 166
337 333 328 325 320 319 316 314 314 314 317 319 320 322 328 328 285 54 199 218 215 203 284 287 281 282 146 102 201 22 13 115 118 126 149 169 156 167 174 176 146 147 150 157 165
333 330 326 323 319 317 314 312 311 312 315 316 317 323 340 269 252 261 221 208 202 192 235 263 285 310 75 126 341 26 46 2 25 305 124 104 57 204 122 130 135 144 152 160 170
331 327 322 320 317 314 311 310 308 310 312 313 312 322 314 260 245 236 189 207 210 201 253 258 273 295 82 73 70 324 71 66 23 302 36 48 63 53 127 136 140 149 158 166 182
330 326 323 320 317 313 310 306 305 307 309 307 307 326 263 241 264 252 206 246 251 228 244 263 282 342 341 71 45 349 334 100 187 248 278 342 67 139 344 146 150 155 164 175 191
329 326 324 320 316 311 306 303 302 303 303 302 307 353 254 270 259 250 245 253 249 233 231 267 288 295 53 120 92 294 331 9 252 303 284 64 276 253 234 165 159 162 170 178 193
331 327 325 322 318 311 305 302 298 295 289 297 310 212 269 284 231 242 255 257 256 260 242 252 275 259 204 120 80 287 297 184 297 215 217 199 245 230 229 183 156 164 174 179 193
337 332 327 325 319 309 310 306 289 285 281 268 265 298 268 245 236 232 238 239 255 287 298 224 247 268 276 176 176 215 327 147 259 283 223 209 256 221 192 172 164 162 173 185 190
342 339 330 324 315 314 325 333 24 15 254 217 204 231 329 244 323 348 312 313 255 275 287 287 216 243 257 271 155 123 106 307 312 290 271 242 206 183 188 175 165 173 173 186 189
345 341 335 325 314 307 312 265 20 303 298 241 251 252 254 323 340 290 232 235 264 233 256 295 266 254 262 272 141 144 175 190 209 263 261 268 170 179 176 178 163 173 175 190 191
346 343 337 329 318 291 239 277 322 323 266 274 207 232 236 225 245 266 188 215 240 271 242 232 256 269 268 272 153 188 203 248 212 239 253 287 145 157 67 95 122 63 246 188 192
347 344 337 330 322 303 260 3 343 326 304 211 187 241 150 152 282 233 259 208 240 244 262 235 248 266 279 279 259 223 222 287 319 23 272 38 217 129 180 175 169 219 216 203 188
345 340 336 322 308 309 1 338 328 299 314 169 184 144 219 173 289 238 246 2 253 267 276 265 273 262 272 274 292 277 298 331 326 330 16 300 80 251 184 187 196 244 234 218 185
335 330 329 323 304 282 322 317 296 327 254 144 151 189 199 225 261 133 145 214 282 306 295 263 280 269 259 306 353 341 352 337 322 352 339 261 172 246 190 191 210 231 235 213 186
325 312 304 283 251 334 322 299 309 226 168 43 146 177 199 191 223 176 185 214 185 304 267 281 269 271 277 309 337 346 351 328 334 340 233 259 292 229 199 192 198 214 230 273 197
328 311 292 270 262 276 303 319 268 16 39 156 260 285 341 60 287 199 226 214 217 215 264 249 311 289 289 187 203 245 188 161 287 275 268 327 296 185 166 191 182 183 235 180 241
332 325 270 278 217 244 302 289 327 1 354 337 325 258 197 137 218 237 239 109 83 69 45 9 322 330 325 291 168 252 281 237 300 290 7 283 347 8 84 168 207 187 191 219 218
335 302 273 258 205 216 299 274 28 1 347 323 326 4 2 37 327 357 91 28 64 42 23 324 338 313 307 355 351 118 234 358 352 2 325 307 298 207 225 210 358 40 262 229 200
325 287 153 171 200 213 247 281 6 79 358 338 352 344 2 16 357 345 67 38 42 23 2 6 16 305 342 325 318 318 270 239 166 149 198 296 286 163 194 188 172 84 34 330 169
314 293 154 217 311 239 215 102 311 0 148 297 313 339 4 359 351 354 30 87 65 37 27 10 275 326 296 347 19 31 11 36 112 291 230 168 273 315 4 28 149 149 166 188 91
303 261 165 228 281 321 134 160 195 4 5 0 360 18 7 344 353 337 340 133 107 90 103 18 342 350 335 341 2 7 334 324 340 46 285 112 270 44 31 52 42 164 176 157 109
295 306 359 340 278 359 2 355 77 127 246 41 347 336 323 348 343 312 316 333 146 99 128 108 253 217 248 269 299 333 330 331 342 10 306 285 324 343 6 74 82 79 68 47 38
269 349 9 332 340 352 343 339 328 326 101 64 262 309 14 27 344 348 359 347 2 169 301 138 252 271 283 315 329 319 310 310 311 289 313 300 322 306 341 159 145 127 103 78 45
8 355 343 299 300 310 263 309 305 28 29 357 345 350 18 32 53 329 350 348 301 337 347 332 311 334 327 321 314 311 308 297 290 291 297 297 292 13 37 52 43 12 40 99 88
9 328 277 285 308 303 20 9 354 18 346 343 15 8 340 350 359 325 292 277 270 275 280 287 294 338 294 312 314 323 292 306 295 311 325 298 311 316 47 44 32 36 30 20 349